| time (UTC) | temp C | wind direction | speed KPH | gust KPH | rain 1hr cm | rain 24hr cm | rain mn cm | humidity % | barometer mb |
| 20260906060438 | 20 | 116 | 0.0 | 0.0 | 0.00 | 0.00 | 0.00 | 99 | 1011.5 |
| 20260906055935 | 20 | 119 | 0.0 | 0.0 | 0.00 | 0.00 | 0.00 | 99 | 1011.8 |
| 20260906055431 | 20 | 116 | 0.0 | 0.0 | 0.00 | 0.00 | 0.00 | 99 | 1011.7 |
| 20260906054926 | 20 | 113 | 0.0 | 0.0 | 0.00 | 0.00 | 0.00 | 99 | 1011.7 |
| 20260906054420 | 20 | 118 | 0.0 | 0.0 | 0.00 | 0.00 | 0.00 | 99 | 1011.8 |
| 20260906053916 | 20 | 119 | 0.0 | 0.0 | 0.00 | 0.00 | 0.00 | 99 | 1011.7 |
| 20260906053412 | 20 | 118 | 0.0 | 0.0 | 0.00 | 0.00 | 0.00 | 99 | 1011.9 |
| 20260906052908 | 20 | 118 | 0.0 | 0.0 | 0.00 | 0.00 | 0.00 | 99 | 1011.7 |
| 20260906052404 | 20 | 119 | 0.0 | 0.0 | 0.00 | 0.00 | 0.00 | 99 | 1011.6 |
| 20260906051901 | 20 | 116 | 0.0 | 0.0 | 0.00 | 0.00 | 0.00 | 99 | 1011.8 |
| 20260906051401 | 21 | 113 | 0.0 | 0.0 | 0.00 | 0.00 | 0.00 | 99 | 1011.8 |
| 20260906050856 | 21 | 118 | 0.0 | 0.0 | 0.00 | 0.00 | 0.00 | 99 | 1011.8 |
| 20260906050351 | 21 | 125 | 0.0 | 0.0 | 0.00 | 0.00 | 0.00 | 99 | 1011.7 |
| 20260906045850 | 21 | 113 | 0.0 | 0.0 | 0.00 | 0.00 | 0.00 | 99 | 1011.7 |
| 20260906045349 | 21 | 116 | 0.0 | 0.0 | 0.00 | 0.00 | 0.00 | 99 | 1011.7 |
| 20260906044846 | 21 | 116 | 0.0 | 0.0 | 0.00 | 0.00 | 0.00 | 99 | 1011.9 |
| 20260906044346 | 21 | 112 | 0.0 | 0.0 | 0.00 | 0.00 | 0.00 | 99 | 1011.8 |
| 20260906043842 | 21 | 118 | 0.0 | 0.0 | 0.00 | 0.00 | 0.00 | 99 | 1011.6 |
| 20260906043338 | 21 | 118 | 0.0 | 0.0 | 0.00 | 0.00 | 0.00 | 99 | 1011.9 |
| 20260906042833 | 21 | 118 | 0.0 | 0.0 | 0.00 | 0.00 | 0.00 | 99 | 1012.0 |
| 20260906042331 | 21 | 118 | 0.0 | 0.0 | 0.00 | 0.00 | 0.00 | 99 | 1011.8 |
| 20260906041827 | 21 | 113 | 0.0 | 0.0 | 0.00 | 0.00 | 0.00 | 99 | 1012.0 |
| 20260906041323 | 21 | 113 | 0.0 | 0.0 | 0.00 | 0.00 | 0.00 | 99 | 1012.1 |
| 20260906040823 | 21 | 111 | 0.0 | 0.0 | 0.00 | 0.00 | 0.00 | 99 | 1012.1 |
| 20260906040318 | 21 | 116 | 0.0 | 0.0 | 0.00 | 0.00 | 0.00 | 99 | 1012.0 |
| 20260906035813 | 21 | 116 | 0.0 | 0.0 | 0.00 | 0.89 | 0.89 | 99 | 1012.2 |
| 20260906035308 | 21 | 116 | 0.0 | 0.0 | 0.00 | 0.89 | 0.89 | 99 | 1012.0 |
| 20260906034803 | 21 | 116 | 0.0 | 0.0 | 0.00 | 0.89 | 0.89 | 99 | 1012.2 |
| 20260906034258 | 21 | 109 | 0.0 | 0.0 | 0.00 | 0.89 | 0.89 | 99 | 1012.2 |
| 20260906033754 | 21 | 94 | 1.6 | 1.6 | 0.00 | 0.89 | 0.89 | 99 | 1012.1 |
| 20260906033253 | 21 | 111 | 0.0 | 0.0 | 0.00 | 0.89 | 0.89 | 99 | 1012.0 |
| 20260906032750 | 21 | 117 | 0.0 | 0.0 | 0.00 | 0.89 | 0.89 | 99 | 1012.2 |
| 20260906032250 | 21 | 118 | 0.0 | 0.0 | 0.00 | 0.89 | 0.89 | 99 | 1012.2 |
| 20260906031745 | 21 | 118 | 0.0 | 0.0 | 0.00 | 0.89 | 0.89 | 99 | 1012.4 |
| 20260906031241 | 21 | 118 | 0.0 | 0.0 | 0.00 | 0.89 | 0.89 | 99 | 1012.4 |
| 20260906030740 | 21 | 114 | 0.0 | 0.0 | 0.00 | 0.89 | 0.89 | 99 | 1012.6 |
| 20260906030236 | 21 | 122 | 0.0 | 0.0 | 0.00 | 0.89 | 0.89 | 99 | 1012.3 |
| 20260906025735 | 21 | 119 | 0.0 | 0.0 | 0.00 | 0.89 | 0.89 | 99 | 1012.3 |
| 20260906025229 | 21 | 118 | 0.0 | 0.0 | 0.00 | 0.89 | 0.89 | 99 | 1012.3 |
| 20260906024728 | 21 | 114 | 0.0 | 0.0 | 0.00 | 0.89 | 0.89 | 99 | 1012.1 |
| 20260906024228 | 21 | 113 | 0.0 | 0.0 | 0.00 | 0.89 | 0.89 | 99 | 1012.0 |
| 20260906023724 | 21 | 114 | 0.0 | 0.0 | 0.00 | 0.89 | 0.89 | 99 | 1011.8 |
| 20260906023219 | 21 | 117 | 0.0 | 0.0 | 0.00 | 0.89 | 0.89 | 99 | 1011.7 |
| 20260906022714 | 21 | 117 | 0.0 | 0.0 | 0.00 | 0.89 | 0.89 | 99 | 1011.9 |
| 20260906022209 | 21 | 114 | 0.0 | 0.0 | 0.00 | 0.89 | 0.89 | 99 | 1011.8 |
| 20260906021706 | 21 | 117 | 0.0 | 0.0 | 0.00 | 0.89 | 0.89 | 99 | 1011.9 |
| 20260906021204 | 21 | 117 | 0.0 | 0.0 | 0.00 | 0.89 | 0.89 | 99 | 1011.9 |
| 20260906020659 | 21 | 117 | 0.0 | 0.0 | 0.00 | 0.89 | 0.89 | 99 | 1011.9 |
| 20260906020154 | 22 | 117 | 0.0 | 0.0 | 0.00 | 0.89 | 0.89 | 99 | 1011.7 |
| 20260906015648 | 22 | 117 | 0.0 | 0.0 | 0.00 | 0.89 | 0.89 | 99 | 1011.9 |
| 20260906015147 | 22 | 117 | 0.0 | 0.0 | 0.00 | 0.89 | 0.89 | 99 | 1011.8 |
| 20260906014647 | 22 | 117 | 0.0 | 0.0 | 0.00 | 0.89 | 0.89 | 99 | 1011.6 |
| 20260906014143 | 22 | 117 | 0.0 | 0.0 | 0.00 | 0.89 | 0.89 | 99 | 1011.7 |
| 20260906013638 | 22 | 114 | 0.0 | 0.0 | 0.00 | 0.89 | 0.89 | 99 | 1011.7 |
| 20260906013134 | 22 | 113 | 0.0 | 0.0 | 0.00 | 0.89 | 0.89 | 99 | 1011.7 |
| 20260906012633 | 22 | 117 | 0.0 | 0.0 | 0.00 | 0.89 | 0.89 | 99 | 1011.6 |
| 20260906012128 | 22 | 116 | 0.0 | 0.0 | 0.00 | 0.89 | 0.89 | 99 | 1011.7 |
| 20260906011624 | 22 | 116 | 0.0 | 0.0 | 0.00 | 0.89 | 0.89 | 99 | 1011.5 |
| 20260906011119 | 22 | 116 | 0.0 | 0.0 | 0.00 | 0.89 | 0.89 | 99 | 1011.6 |
| 20260906010614 | 22 | 116 | 0.0 | 0.0 | 0.00 | 0.89 | 0.89 | 99 | 1011.7 |
| 20260906010110 | 22 | 115 | 0.0 | 0.0 | 0.00 | 0.89 | 0.89 | 99 | 1011.6 |
| 20260906005610 | 22 | 115 | 0.0 | 0.0 | 0.00 | 0.89 | 0.89 | 99 | 1011.5 |
| 20260906005109 | 22 | 117 | 0.0 | 0.0 | 0.00 | 0.89 | 0.89 | 99 | 1011.9 |
| 20260906004608 | 22 | 117 | 0.0 | 0.0 | 0.00 | 0.89 | 0.89 | 99 | 1011.7 |
| 20260906004103 | 22 | 117 | 0.0 | 0.0 | 0.00 | 0.89 | 0.89 | 99 | 1011.6 |
| 20260906003558 | 22 | 117 | 0.0 | 0.0 | 0.00 | 0.89 | 0.89 | 99 | 1011.4 |
| 20260906003054 | 22 | 119 | 0.0 | 0.0 | 0.00 | 0.89 | 0.89 | 99 | 1011.5 |
| 20260906002549 | 22 | 116 | 0.0 | 0.0 | 0.00 | 0.89 | 0.89 | 99 | 1011.4 |
| 20260906002044 | 22 | 116 | 0.0 | 0.0 | 0.00 | 0.89 | 0.89 | 99 | 1011.3 |
| 20260906001539 | 22 | 122 | 0.0 | 0.0 | 0.00 | 0.89 | 0.89 | 99 | 1011.6 |
| 20260906001033 | 22 | 115 | 0.0 | 0.0 | 0.00 | 0.89 | 0.89 | 99 | 1011.4 |
| 20260906000529 | 22 | 119 | 0.0 | 0.0 | 0.00 | 0.89 | 0.89 | 99 | 1011.5 |
| 20260906000024 | 22 | 118 | 0.0 | 0.0 | 0.00 | 0.89 | 0.89 | 99 | 1011.6 |
| 20260905235517 | 22 | 118 | 0.0 | 0.0 | 0.00 | 0.89 | 0.89 | 99 | 1011.3 |
| 20260905235013 | 22 | 110 | 0.0 | 0.0 | 0.00 | 0.89 | 0.89 | 99 | 1011.4 |
| 20260905234509 | 22 | 122 | 0.0 | 0.0 | 0.00 | 0.89 | 0.89 | 99 | 1011.3 |
| 20260905234009 | 22 | 118 | 0.0 | 0.0 | 0.00 | 0.89 | 0.89 | 99 | 1011.0 |
| 20260905233504 | 22 | 117 | 0.0 | 0.0 | 0.00 | 0.89 | 0.89 | 99 | 1011.1 |
| 20260905233003 | 22 | 118 | 0.0 | 0.0 | 0.00 | 0.89 | 0.89 | 99 | 1010.8 |
| 20260905232459 | 22 | 124 | 0.0 | 0.0 | 0.00 | 0.89 | 0.89 | 99 | 1011.0 |
| 20260905231954 | 23 | 121 | 0.0 | 0.0 | 0.00 | 0.89 | 0.89 | 99 | 1010.8 |
| 20260905231450 | 23 | 120 | 0.0 | 0.0 | 0.00 | 0.89 | 0.89 | 99 | 1010.4 |
| 20260905230946 | 22 | 118 | 0.0 | 0.0 | 0.00 | 0.89 | 0.89 | 99 | 1010.3 |
| 20260905230445 | 23 | 116 | 0.0 | 0.0 | 0.00 | 0.89 | 0.89 | 99 | 1010.8 |
| 20260905225943 | 22 | 123 | 0.0 | 0.0 | 0.00 | 0.89 | 0.89 | 99 | 1010.4 |
| 20260905225438 | 22 | 118 | 0.0 | 0.0 | 0.00 | 0.89 | 0.89 | 99 | 1010.4 |
| 20260905224933 | 23 | 116 | 0.0 | 0.0 | 0.00 | 0.89 | 0.89 | 99 | 1010.2 |
| 20260905224428 | 22 | 113 | 0.0 | 0.0 | 0.00 | 0.89 | 0.89 | 99 | 1010.1 |
| 20260905223922 | 22 | 119 | 0.0 | 0.0 | 0.00 | 0.89 | 0.89 | 99 | 1010.4 |
| 20260905223421 | 22 | 119 | 0.0 | 0.0 | 0.00 | 0.89 | 0.89 | 99 | 1010.4 |
| 20260905222921 | 22 | 120 | 0.0 | 0.0 | 0.00 | 0.89 | 0.89 | 99 | 1010.3 |
| 20260905222420 | 22 | 120 | 0.0 | 0.0 | 0.00 | 0.89 | 0.89 | 99 | 1010.1 |
| 20260905221916 | 23 | 117 | 0.0 | 1.6 | 0.00 | 0.89 | 0.89 | 99 | 1010.2 |
| 20260905221413 | 23 | 116 | 0.0 | 0.0 | 0.00 | 0.89 | 0.89 | 99 | 1010.2 |
| 20260905220909 | 23 | 117 | 0.0 | 0.0 | 0.00 | 0.89 | 0.89 | 99 | 1010.4 |
| 20260905220404 | 23 | 80 | 1.6 | 3.2 | 0.00 | 0.89 | 0.89 | 99 | 1010.1 |
| 20260905215903 | 23 | 113 | 0.0 | 0.0 | 0.00 | 0.89 | 0.89 | 99 | 1010.3 |
| 20260905215359 | 23 | 115 | 0.0 | 0.0 | 0.00 | 0.89 | 0.89 | 99 | 1010.2 |
| 20260905214855 | 23 | 246 | 1.6 | 3.2 | 0.00 | 0.89 | 0.89 | 99 | 1010.1 |
| 20260905214350 | 23 | 110 | 1.6 | 4.8 | 0.00 | 0.89 | 0.89 | 99 | 1010.4 |
| 20260905213845 | 23 | 93 | 0.0 | 3.2 | 0.00 | 0.89 | 0.89 | 99 | 1010.3 |
| 20260905213342 | 22 | 332 | 3.2 | 4.8 | 0.00 | 0.89 | 0.89 | 99 | 1010.1 |
| 20260905212842 | 23 | 117 | 0.0 | 3.2 | 0.00 | 0.89 | 0.89 | 99 | 1010.2 |
| 20260905212336 | 23 | 115 | 3.2 | 3.2 | 0.00 | 0.89 | 0.89 | 99 | 1010.3 |
| 20260905211836 | 23 | 125 | 1.6 | 3.2 | 0.00 | 0.89 | 0.89 | 99 | 1010.4 |
| 20260905211331 | 22 | 118 | 0.0 | 0.0 | 0.00 | 0.89 | 0.89 | 99 | 1010.6 |
| 20260905210827 | 23 | 107 | 0.0 | 0.0 | 0.00 | 0.89 | 0.89 | 99 | 1010.8 |
| 20260905210322 | 22 | 113 | 0.0 | 0.0 | 0.00 | 0.89 | 0.89 | 99 | 1010.9 |
| 20260905205821 | 22 | 119 | 1.6 | 1.6 | 0.00 | 0.89 | 0.89 | 99 | 1011.1 |
| 20260905205316 | 21 | 118 | 0.0 | 0.0 | 0.18 | 0.89 | 0.89 | 99 | 1011.2 |
| 20260905204815 | 21 | 117 | 0.0 | 0.0 | 0.00 | 0.86 | 0.86 | 99 | 1011.7 |
| 20260905204311 | 21 | 134 | 0.0 | 0.0 | 0.13 | 0.86 | 0.86 | 99 | 1012.0 |
| 20260905203810 | 21 | 122 | 1.6 | 1.6 | 0.18 | 0.84 | 0.84 | 99 | 1011.8 |
| 20260905203306 | 21 | 115 | 0.0 | 0.0 | 0.18 | 0.84 | 0.84 | 99 | 1011.9 |
| 20260905202801 | 21 | 121 | 0.0 | 1.6 | 0.00 | 0.81 | 0.81 | 99 | 1011.8 |
| 20260905202255 | 21 | 35 | 1.6 | 4.8 | 0.00 | 0.81 | 0.81 | 99 | 1011.9 |
| 20260905201751 | 21 | 119 | 0.0 | 0.0 | 0.00 | 0.81 | 0.81 | 99 | 1011.6 |
| 20260905201247 | 21 | 106 | 0.0 | 0.0 | 0.00 | 0.81 | 0.81 | 99 | 1011.4 |
| 20260905200741 | 21 | 125 | 0.0 | 0.0 | 0.00 | 0.81 | 0.81 | 99 | 1011.3 |
| 20260905200237 | 21 | 133 | 0.0 | 0.0 | 0.00 | 0.81 | 0.81 | 99 | 1010.9 |
| 20260905195735 | 21 | 128 | 0.0 | 0.0 | 0.13 | 0.81 | 0.81 | 98 | 1011.2 |
| 20260905195230 | 21 | 123 | 0.0 | 0.0 | 1.19 | 0.81 | 0.81 | 97 | 1011.7 |
| 20260905194726 | 21 | 122 | 1.6 | 1.6 | 4.45 | 0.79 | 0.79 | 95 | 1012.2 |
| 20260905194225 | 23 | 123 | 1.6 | 1.6 | 2.77 | 0.46 | 0.46 | 88 | 1012.5 |
| 20260905193719 | 30 | 22 | 17.7 | 48.3 | 0.00 | 0.00 | 0.00 | 73 | 1012.4 |
| 20260905193214 | 31 | 1 | 16.1 | 24.1 | 0.00 | 0.00 | 0.00 | 56 | 1011.6 |
| 20260905192710 | 32 | 137 | 3.2 | 8.0 | 0.00 | 0.00 | 0.00 | 68 | 1011.0 |
| 20260905192206 | 33 | 123 | 0.0 | 0.0 | 0.00 | 0.00 | 0.00 | 63 | 1010.7 |
| 20260905191706 | 33 | 121 | 0.0 | 1.6 | 0.00 | 0.00 | 0.00 | 63 | 1010.6 |
| 20260905191204 | 34 | 113 | 0.0 | 1.6 | 0.00 | 0.00 | 0.00 | 58 | 1010.5 |
| 20260905190703 | 35 | 117 | 0.0 | 1.6 | 0.00 | 0.00 | 0.00 | 57 | 1010.3 |
| 20260905190202 | 35 | 129 | 0.0 | 1.6 | 0.00 | 0.00 | 0.00 | 53 | 1010.2 |
| 20260905185701 | 35 | 116 | 0.0 | 1.6 | 0.00 | 0.00 | 0.00 | 54 | 1010.5 |
| 20260905185155 | 37 | 138 | 1.6 | 3.2 | 0.00 | 0.00 | 0.00 | 50 | 1010.2 |
| 20260905184655 | 36 | 51 | 3.2 | 4.8 | 0.00 | 0.00 | 0.00 | 50 | 1010.4 |
| 20260905184153 | 36 | 73 | 0.0 | 3.2 | 0.00 | 0.00 | 0.00 | 49 | 1010.4 |
| 20260905183648 | 37 | 322 | 4.8 | 4.8 | 0.00 | 0.00 | 0.00 | 50 | 1010.6 |
| 20260905183143 | 36 | 124 | 0.0 | 1.6 | 0.00 | 0.00 | 0.00 | 52 | 1010.6 |
| 20260905182642 | 35 | 148 | 1.6 | 1.6 | 0.00 | 0.00 | 0.00 | 53 | 1010.6 |
| 20260905182143 | 36 | 123 | 1.6 | 1.6 | 0.00 | 0.00 | 0.00 | 52 | 1011.0 |
| 20260905181638 | 36 | 123 | 1.6 | 1.6 | 0.00 | 0.00 | 0.00 | 52 | 1010.8 |
| 20260905181137 | 35 | 124 | 1.6 | 3.2 | 0.00 | 0.00 | 0.00 | 55 | 1011.0 |
| 20260905180632 | 35 | 96 | 0.0 | 1.6 | 0.00 | 0.00 | 0.00 | 53 | 1011.2 |
| 20260905180127 | 35 | 116 | 0.0 | 1.6 | 0.00 | 0.00 | 0.00 | 55 | 1011.3 |
| 20260905175626 | 35 | 129 | 3.2 | 4.8 | 0.00 | 0.00 | 0.00 | 54 | 1011.3 |
| 20260905175121 | 35 | 155 | 0.0 | 1.6 | 0.00 | 0.00 | 0.00 | 54 | 1011.3 |
| 20260905174611 | 34 | 125 | 1.6 | 1.6 | 0.00 | 0.00 | 0.00 | 58 | 1011.6 |
| 20260905174106 | 35 | 28 | 3.2 | 8.0 | 0.00 | 0.00 | 0.00 | 57 | 1011.7 |
| 20260905173603 | 35 | 139 | 1.6 | 3.2 | 0.00 | 0.00 | 0.00 | 58 | 1011.8 |
| 20260905173058 | 35 | 131 | 1.6 | 1.6 | 0.00 | 0.00 | 0.00 | 57 | 1011.7 |
| 20260905172556 | 35 | 120 | 0.0 | 0.0 | 0.00 | 0.00 | 0.00 | 58 | 1011.9 |
| 20260905172052 | 35 | 129 | 0.0 | 0.0 | 0.00 | 0.00 | 0.00 | 57 | 1012.0 |
| 20260905171548 | 35 | 115 | 0.0 | 1.6 | 0.00 | 0.00 | 0.00 | 57 | 1011.8 |
| 20260905171044 | 35 | 127 | 0.0 | 1.6 | 0.00 | 0.00 | 0.00 | 57 | 1012.3 |
| 20260905170541 | 35 | 120 | 0.0 | 1.6 | 0.00 | 0.00 | 0.00 | 62 | 1012.5 |
| 20260905170036 | 35 | 126 | 0.0 | 1.6 | 0.00 | 0.00 | 0.00 | 61 | 1012.4 |
| 20260905165530 | 33 | 113 | 0.0 | 1.6 | 0.00 | 0.00 | 0.00 | 61 | 1012.7 |
| 20260905165026 | 34 | 108 | 0.0 | 3.2 | 0.00 | 0.00 | 0.00 | 60 | 1012.6 |
| 20260905164520 | 34 | 139 | 1.6 | 1.6 | 0.00 | 0.00 | 0.00 | 62 | 1012.7 |
| 20260905164015 | 34 | 123 | 0.0 | 1.6 | 0.00 | 0.00 | 0.00 | 64 | 1012.6 |
| 20260905163511 | 33 | 122 | 0.0 | 4.8 | 0.00 | 0.00 | 0.00 | 66 | 1012.9 |
| 20260905163007 | 33 | 117 | 1.6 | 1.6 | 0.00 | 0.00 | 0.00 | 64 | 1012.9 |
| 20260905162502 | 32 | 124 | 0.0 | 3.2 | 0.00 | 0.00 | 0.00 | 66 | 1013.0 |
| 20260905161957 | 32 | 121 | 0.0 | 1.6 | 0.00 | 0.00 | 0.00 | 68 | 1013.2 |
| 20260905161456 | 32 | 118 | 1.6 | 3.2 | 0.00 | 0.00 | 0.00 | 68 | 1013.2 |
| 20260905160954 | 33 | 185 | 4.8 | 4.8 | 0.00 | 0.00 | 0.00 | 67 | 1013.3 |
| 20260905160448 | 33 | 114 | 0.0 | 1.6 | 0.00 | 0.00 | 0.00 | 65 | 1013.0 |
| 20260905155948 | 32 | 127 | 0.0 | 1.6 | 0.00 | 0.00 | 0.00 | 70 | 1013.3 |
| 20260905155443 | 31 | 126 | 1.6 | 1.6 | 0.00 | 0.00 | 0.00 | 72 | 1013.4 |
| 20260905154941 | 31 | 135 | 1.6 | 4.8 | 0.00 | 0.00 | 0.00 | 71 | 1012.9 |
| 20260905154436 | 31 | 87 | 3.2 | 8.0 | 0.00 | 0.00 | 0.00 | 72 | 1013.3 |
| 20260905153932 | 31 | 129 | 3.2 | 3.2 | 0.00 | 0.00 | 0.00 | 74 | 1013.4 |
| 20260905153428 | 31 | 114 | 0.0 | 0.0 | 0.00 | 0.00 | 0.00 | 75 | 1013.2 |
| 20260905152928 | 30 | 130 | 1.6 | 1.6 | 0.00 | 0.00 | 0.00 | 76 | 1013.4 |
| 20260905152428 | 30 | 122 | 1.6 | 4.8 | 0.00 | 0.00 | 0.00 | 74 | 1013.5 |
| 20260905151923 | 30 | 111 | 3.2 | 3.2 | 0.00 | 0.00 | 0.00 | 73 | 1013.2 |
| 20260905151419 | 30 | 355 | 4.8 | 4.8 | 0.00 | 0.00 | 0.00 | 74 | 1013.5 |
| 20260905150918 | 30 | 115 | 0.0 | 0.0 | 0.00 | 0.00 | 0.00 | 74 | 1013.4 |
| 20260905150413 | 30 | 16 | 3.2 | 3.2 | 0.00 | 0.00 | 0.00 | 77 | 1013.7 |
| 20260905145909 | 30 | 4 | 4.8 | 4.8 | 0.00 | 0.00 | 0.00 | 78 | 1013.3 |
| 20260905145404 | 29 | 115 | 0.0 | 1.6 | 0.00 | 0.00 | 0.00 | 78 | 1013.5 |
| 20260905144904 | 29 | 126 | 0.0 | 1.6 | 0.00 | 0.00 | 0.00 | 80 | 1013.4 |
| 20260905144359 | 29 | 121 | 0.0 | 0.0 | 0.00 | 0.00 | 0.00 | 81 | 1013.4 |
| 20260905143858 | 28 | 125 | 0.0 | 3.2 | 0.00 | 0.00 | 0.00 | 81 | 1013.4 |
| 20260905143352 | 28 | 124 | 0.0 | 3.2 | 0.00 | 0.00 | 0.00 | 81 | 1013.7 |
| 20260905142851 | 28 | 125 | 1.6 | 3.2 | 0.00 | 0.00 | 0.00 | 82 | 1013.5 |
| 20260905142350 | 28 | 122 | 0.0 | 3.2 | 0.00 | 0.00 | 0.00 | 82 | 1013.7 |
| 20260905141846 | 28 | 128 | 0.0 | 0.0 | 0.00 | 0.00 | 0.00 | 82 | 1013.5 |
| 20260905141341 | 28 | 117 | 0.0 | 0.0 | 0.00 | 0.00 | 0.00 | 83 | 1013.4 |
| 20260905140838 | 28 | 119 | 0.0 | 0.0 | 0.00 | 0.00 | 0.00 | 83 | 1013.7 |
| 20260905140337 | 28 | 86 | 0.0 | 1.6 | 0.00 | 0.00 | 0.00 | 85 | 1013.4 |
| 20260905135836 | 27 | 117 | 0.0 | 0.0 | 0.00 | 0.00 | 0.00 | 86 | 1013.6 |
| 20260905135332 | 27 | 87 | 3.2 | 3.2 | 0.00 | 0.00 | 0.00 | 86 | 1013.9 |
| 20260905134827 | 26 | 128 | 0.0 | 1.6 | 0.00 | 0.00 | 0.00 | 87 | 1013.8 |
| 20260905134321 | 26 | 111 | 0.0 | 0.0 | 0.00 | 0.00 | 0.00 | 88 | 1013.6 |
| 20260905133821 | 26 | 118 | 1.6 | 1.6 | 0.00 | 0.00 | 0.00 | 88 | 1013.7 |
| 20260905133316 | 26 | 116 | 0.0 | 1.6 | 0.00 | 0.00 | 0.00 | 88 | 1013.9 |
| 20260905132815 | 26 | 112 | 3.2 | 3.2 | 0.00 | 0.00 | 0.00 | 89 | 1013.7 |
| 20260905132311 | 26 | 332 | 4.8 | 8.0 | 0.00 | 0.00 | 0.00 | 89 | 1013.8 |
| 20260905131805 | 26 | 116 | 1.6 | 1.6 | 0.00 | 0.00 | 0.00 | 91 | 1013.9 |
| 20260905131301 | 25 | 121 | 1.6 | 1.6 | 0.00 | 0.00 | 0.00 | 91 | 1014.2 |
| 20260905130755 | 25 | 103 | 1.6 | 1.6 | 0.00 | 0.00 | 0.00 | 92 | 1014.1 |
| 20260905130254 | 25 | 113 | 1.6 | 3.2 | 0.00 | 0.00 | 0.00 | 94 | 1014.1 |
| 20260905125750 | 24 | 119 | 0.0 | 1.6 | 0.00 | 0.00 | 0.00 | 96 | 1013.9 |
| 20260905125244 | 24 | 116 | 1.6 | 3.2 | 0.00 | 0.00 | 0.00 | 97 | 1014.0 |
| 20260905124741 | 23 | 110 | 1.6 | 3.2 | 0.00 | 0.00 | 0.00 | 99 | 1014.1 |
| 20260905124237 | 23 | 129 | 0.0 | 1.6 | 0.00 | 0.00 | 0.00 | 99 | 1014.0 |
| 20260905123732 | 23 | 116 | 0.0 | 0.0 | 0.00 | 0.00 | 0.00 | 99 | 1014.0 |
| 20260905123229 | 23 | 115 | 0.0 | 0.0 | 0.00 | 0.00 | 0.00 | 99 | 1014.3 |
| 20260905122729 | 23 | 113 | 1.6 | 3.2 | 0.00 | 0.00 | 0.00 | 99 | 1013.9 |
| 20260905122228 | 23 | 115 | 0.0 | 0.0 | 0.00 | 0.00 | 0.00 | 99 | 1014.0 |
| 20260905121724 | 23 | 115 | 0.0 | 1.6 | 0.00 | 0.00 | 0.00 | 99 | 1014.1 |
| 20260905121220 | 22 | 104 | 0.0 | 0.0 | 0.00 | 0.00 | 0.00 | 99 | 1013.8 |
| 20260905120719 | 22 | 119 | 0.0 | 0.0 | 0.00 | 0.00 | 0.00 | 99 | 1013.8 |
| 20260905120213 | 22 | 118 | 0.0 | 0.0 | 0.00 | 0.00 | 0.00 | 99 | 1013.6 |
| 20260905115708 | 22 | 116 | 0.0 | 0.0 | 0.00 | 0.00 | 0.00 | 99 | 1013.8 |
| 20260905115203 | 22 | 119 | 0.0 | 0.0 | 0.00 | 0.00 | 0.00 | 99 | 1013.7 |
| 20260905114702 | 22 | 117 | 0.0 | 0.0 | 0.00 | 0.00 | 0.00 | 99 | 1013.7 |
| 20260905114201 | 22 | 117 | 0.0 | 0.0 | 0.00 | 0.00 | 0.00 | 99 | 1013.7 |
| 20260905113655 | 22 | 117 | 0.0 | 0.0 | 0.00 | 0.00 | 0.00 | 99 | 1013.5 |
| 20260905113151 | 22 | 116 | 0.0 | 0.0 | 0.00 | 0.00 | 0.00 | 99 | 1013.5 |
| 20260905112650 | 22 | 116 | 0.0 | 0.0 | 0.00 | 0.00 | 0.00 | 99 | 1013.3 |
| 20260905112146 | 22 | 116 | 0.0 | 0.0 | 0.00 | 0.00 | 0.00 | 99 | 1013.2 |
| 20260905111646 | 22 | 116 | 0.0 | 0.0 | 0.00 | 0.00 | 0.00 | 99 | 1013.3 |
| 20260905111145 | 22 | 116 | 0.0 | 0.0 | 0.00 | 0.00 | 0.00 | 99 | 1013.2 |
| 20260905110644 | 22 | 116 | 0.0 | 0.0 | 0.00 | 0.00 | 0.00 | 99 | 1012.8 |
| 20260905110140 | 22 | 119 | 0.0 | 0.0 | 0.00 | 0.00 | 0.00 | 99 | 1012.8 |
| 20260905105635 | 22 | 117 | 0.0 | 0.0 | 0.00 | 0.00 | 0.00 | 99 | 1012.7 |
| 20260905105134 | 22 | 117 | 0.0 | 0.0 | 0.00 | 0.00 | 0.00 | 99 | 1012.7 |
| 20260905104629 | 22 | 120 | 0.0 | 0.0 | 0.00 | 0.00 | 0.00 | 99 | 1012.7 |
| 20260905104125 | 22 | 118 | 0.0 | 0.0 | 0.00 | 0.00 | 0.00 | 99 | 1012.6 |
| 20260905103620 | 22 | 117 | 0.0 | 0.0 | 0.00 | 0.00 | 0.00 | 99 | 1012.5 |
| 20260905103116 | 22 | 117 | 0.0 | 0.0 | 0.00 | 0.00 | 0.00 | 99 | 1012.5 |
| 20260905102611 | 22 | 116 | 0.0 | 0.0 | 0.00 | 0.00 | 0.00 | 99 | 1012.7 |
| 20260905102108 | 22 | 116 | 0.0 | 0.0 | 0.00 | 0.00 | 0.00 | 99 | 1012.4 |
| 20260905101606 | 22 | 120 | 0.0 | 0.0 | 0.00 | 0.00 | 0.00 | 99 | 1012.6 |
| 20260905101104 | 22 | 120 | 0.0 | 0.0 | 0.00 | 0.00 | 0.00 | 99 | 1012.2 |
| 20260905100601 | 22 | 120 | 0.0 | 0.0 | 0.00 | 0.00 | 0.00 | 99 | 1012.4 |
| 20260905100055 | 22 | 120 | 0.0 | 0.0 | 0.00 | 0.00 | 0.00 | 99 | 1012.3 |
| 20260905095549 | 22 | 120 | 0.0 | 0.0 | 0.00 | 0.00 | 0.00 | 99 | 1012.2 |
| 20260905095045 | 22 | 120 | 0.0 | 0.0 | 0.00 | 0.00 | 0.00 | 99 | 1012.5 |
| 20260905094539 | 22 | 120 | 0.0 | 0.0 | 0.00 | 0.00 | 0.00 | 99 | 1012.5 |
| 20260905094039 | 22 | 117 | 0.0 | 0.0 | 0.00 | 0.00 | 0.00 | 99 | 1012.6 |
| 20260905093533 | 22 | 120 | 0.0 | 0.0 | 0.00 | 0.00 | 0.00 | 99 | 1012.4 |
| 20260905093030 | 22 | 120 | 0.0 | 0.0 | 0.00 | 0.00 | 0.00 | 99 | 1012.2 |
| 20260905092530 | 22 | 121 | 0.0 | 0.0 | 0.00 | 0.00 | 0.00 | 99 | 1012.1 |
| 20260905092026 | 22 | 116 | 0.0 | 0.0 | 0.00 | 0.00 | 0.00 | 99 | 1012.1 |
| 20260905091524 | 22 | 116 | 0.0 | 0.0 | 0.00 | 0.00 | 0.00 | 99 | 1012.2 |
| 20260905091019 | 22 | 117 | 0.0 | 0.0 | 0.00 | 0.00 | 0.00 | 99 | 1012.4 |
| 20260905090519 | 22 | 117 | 0.0 | 0.0 | 0.00 | 0.00 | 0.00 | 99 | 1012.3 |
| 20260905090014 | 22 | 116 | 0.0 | 0.0 | 0.00 | 0.00 | 0.00 | 99 | 1012.4 |
| 20260905085512 | 22 | 115 | 0.0 | 0.0 | 0.00 | 0.00 | 0.00 | 99 | 1012.5 |
| 20260905085009 | 22 | 116 | 0.0 | 0.0 | 0.00 | 0.00 | 0.00 | 99 | 1012.5 |
| 20260905084503 | 22 | 116 | 0.0 | 0.0 | 0.00 | 0.00 | 0.00 | 99 | 1012.8 |
| 20260905083957 | 22 | 120 | 0.0 | 0.0 | 0.00 | 0.00 | 0.00 | 99 | 1012.7 |
| 20260905083453 | 22 | 119 | 0.0 | 0.0 | 0.00 | 0.00 | 0.00 | 99 | 1012.8 |
| 20260905082949 | 22 | 120 | 0.0 | 0.0 | 0.00 | 0.00 | 0.00 | 99 | 1012.8 |
| 20260905082444 | 22 | 120 | 0.0 | 0.0 | 0.00 | 0.00 | 0.00 | 99 | 1012.9 |
| 20260905081945 | 22 | 116 | 0.0 | 0.0 | 0.00 | 0.00 | 0.00 | 99 | 1012.9 |
| 20260905081440 | 22 | 120 | 0.0 | 0.0 | 0.00 | 0.00 | 0.00 | 99 | 1012.5 |
| 20260905080939 | 22 | 120 | 0.0 | 0.0 | 0.00 | 0.00 | 0.00 | 99 | 1012.9 |
| 20260905080434 | 22 | 120 | 0.0 | 0.0 | 0.00 | 0.00 | 0.00 | 99 | 1012.9 |
| 20260905075932 | 22 | 119 | 0.0 | 0.0 | 0.00 | 0.00 | 0.00 | 99 | 1013.0 |
| 20260905075427 | 22 | 119 | 0.0 | 0.0 | 0.00 | 0.00 | 0.00 | 98 | 1013.0 |
| 20260905074926 | 22 | 119 | 0.0 | 0.0 | 0.00 | 0.00 | 0.00 | 98 | 1013.0 |
| 20260905074422 | 22 | 119 | 0.0 | 0.0 | 0.00 | 0.00 | 0.00 | 98 | 1013.2 |
| 20260905073918 | 22 | 116 | 0.0 | 0.0 | 0.00 | 0.00 | 0.00 | 98 | 1013.0 |
| 20260905073412 | 23 | 116 | 0.0 | 0.0 | 0.00 | 0.00 | 0.00 | 98 | 1012.9 |
| 20260905072908 | 23 | 117 | 0.0 | 0.0 | 0.00 | 0.00 | 0.00 | 98 | 1013.3 |
| 20260905072402 | 23 | 116 | 0.0 | 0.0 | 0.00 | 0.00 | 0.00 | 98 | 1013.3 |
| 20260905071853 | 23 | 115 | 0.0 | 0.0 | 0.00 | 0.00 | 0.00 | 98 | 1013.2 |
| 20260905071349 | 23 | 119 | 0.0 | 0.0 | 0.00 | 0.00 | 0.00 | 97 | 1013.4 |
| 20260905070843 | 23 | 119 | 0.0 | 0.0 | 0.00 | 0.00 | 0.00 | 97 | 1013.0 |
| 20260905070340 | 23 | 120 | 0.0 | 0.0 | 0.00 | 0.00 | 0.00 | 97 | 1013.3 |
| 20260905065839 | 23 | 119 | 0.0 | 0.0 | 0.00 | 0.00 | 0.00 | 97 | 1013.4 |
| 20260905065337 | 23 | 119 | 0.0 | 0.0 | 0.00 | 0.00 | 0.00 | 97 | 1013.5 |
| 20260905064832 | 23 | 119 | 0.0 | 0.0 | 0.00 | 0.00 | 0.00 | 97 | 1013.5 |
| 20260905064328 | 23 | 120 | 0.0 | 0.0 | 0.00 | 0.00 | 0.00 | 97 | 1013.5 |
| 20260905063826 | 23 | 115 | 0.0 | 0.0 | 0.00 | 0.00 | 0.00 | 97 | 1013.7 |
| 20260905063323 | 23 | 115 | 0.0 | 0.0 | 0.00 | 0.00 | 0.00 | 97 | 1013.8 |
| 20260905062819 | 23 | 118 | 0.0 | 0.0 | 0.00 | 0.00 | 0.00 | 97 | 1013.8 |
| 20260905062319 | 23 | 119 | 0.0 | 0.0 | 0.00 | 0.00 | 0.00 | 97 | 1013.7 |
| 20260905061813 | 23 | 116 | 0.0 | 0.0 | 0.00 | 0.00 | 0.00 | 97 | 1013.7 |
| 20260905061308 | 23 | 116 | 0.0 | 0.0 | 0.00 | 0.00 | 0.00 | 97 | 1013.8 |